Regional Weather Roundup
Issued by NWS Midland/Odessa, TX

Home | Current Version | Previous Version | Text Only | Print | Product List | Glossary On
Versions: 1 2 3 4 5 6 7 8 9 10 11 12 13 14 15 16 17 18 19 20 21 22 23 24 25 26 27 28 29 30 31 32 33 34 35 36 37 38 39 40 41 42 43 44 45 46 47 48 49 50
000
ASUS44 KMAF 220201
RWRMAF
MIDLAND AREA WEATHER ROUNDUP
NATIONAL WEATHER SERVICE MIDLAND TX
800 PM CST TUE NOV 21 2017

...IN SOUTHWEST TEXAS AND SOUTHEAST NEW MEXICO...

CITY           SKY/WX    TMP DP  RH WIND       PRES   REMARKS
ALPINE         CLEAR     56  15  20 NE10      30.32R
ANDREWS        FAIR      56  28  33 NE9       30.27R
ARTESIA        CLEAR     54  23  30 CALM      30.30R
BIG SPRING     CLEAR     59  27  29 NE14      30.27R
CARLSBAD       CLEAR     55  26  32 N5        30.27R
DRYDEN           N/A     63  20  19 N10       30.16R
FORT STOCKTON  CLEAR     58  24  27 E6        30.24R
GUAD PASS      CLEAR     54  20  26 NE29G37   30.31R
HOBBS          MOCLDY    55  28  35 E12       30.29R
LAMESA         FAIR      57  25  28 NE20      30.28R
MARFA          NOT AVBL
MIDLAND AIRPK  CLEAR     60  27  28 NE12      30.25R
MIDLAND INTL   CLEAR     60  26  27 NE12      30.24R
ODESSA           N/A     57  26  30 NE14      30.25R
PECOS          CLEAR     60  27  28 NE5       30.24R
PRESIDIO       FAIR      70  10  10 N23       30.16R
SEMINOLE       CLEAR     55  28  35 NE10      30.29R
SNYDER         CLEAR     57  25  28 NE17G28   30.25R
WINK           CLEAR     52  24  33 NE7       30.22R
$$
...OTHER STATIONS IN TEXAS...

CITY           SKY/WX    TMP DP  RH WIND       PRES   REMARKS
ABILENE        CLEAR     53  29  39 N17G29    30.22R
AMARILLO       CLEAR     39  26  59 N10       30.36R WCI  32
AUSTIN         PTCLDY    64  51  62 N18       30.00R
BROWNSVILLE    CLOUDY    72  67  84 CALM      29.87R
CORPUS CHRISTI MOCLDY    68  66  93 NE6       29.91R
DALLAS FTW     PTCLDY    60  47  61 N13       30.12R
DEL RIO        CLEAR     67  30  25 N8        30.06R
EL PASO        PTCLDY    64  17  16 NE12      30.22R
HOUSTON INT    CLOUDY    65  62  90 NE10      29.98R
LUBBOCK        CLEAR     50  24  36 NE16      30.31R
SAN ANGELO     CLEAR     62  28  27 N17       30.16R
SAN ANTONIO    PTCLDY    66  41  40 N14       30.00R
WACO           MOCLDY    63  49  60 N15       30.07R
WICHITA FALLS  CLEAR     38   8  29 N15       30.35R WCI  29
$$
...OTHER LOCATIONS IN NEW MEXICO...

CITY           SKY/WX    TMP DP  RH WIND       PRES   REMARKS
ALAMOGORDO     CLEAR     63  18  17 NE8       30.22R
ALBUQUERQUE    PTCLDY    57  18  21 E17       30.31R
CANNON AFB     CLEAR     46  27  47 E14       30.37R WCI  39
CLOVIS         CLEAR     43  26  51 NE9       30.36R WCI  38
HOLLOMAN AFB   NOT AVBL
ROSWELL        CLEAR     54  25  32 NE8       30.30R
RUIDOSO        CLEAR     45  16  31 SE7       30.42R
SANTA FE       CLEAR     45  22  40 SE9       30.35R
TRUTH OR CONSE CLEAR     60  21  22 N7        30.25R
TUCUMCARI      CLEAR     46  27  47 E13       30.34R
$$




USA.gov is the U.S. government's official web portal to all federal, state and local government web resources and services.